Location: Unspecified
(0.0000°N, 0.0000°E)
Time: 07:17:49
(UTC+00:00)

Hubble Space Telescope - Visible Passes

Search period start: 17 February 2019 00:00
Search period end: 27 February 2019 00:00
Orbit: 537 x 540 km, 28.5° (Epoch: 16 February)

Date Brightness Start Highest point End Pass type
(mag) Time Alt. Az. Time Alt. Az. Time Alt. Az.
18 Feb 2.7 19:17:53 10° N 19:19:56 15° NNE 19:19:56 15° NNE visible
19 Feb 2.3 19:06:46 10° NNW 19:09:51 20° NNE 19:10:45 19° NE visible
20 Feb 1.9 18:55:52 10° NNW 18:59:25 27° NNE 19:01:38 17° ENE visible
20 Feb 3.9 20:36:37 10° WNW 20:37:02 12° W 20:37:02 12° W visible
21 Feb 1.4 18:45:06 10° NW 18:48:58 38° NNE 18:52:35 11° E visible
21 Feb 3.4 20:26:26 10° W 20:27:59 19° WSW 20:27:59 19° WSW visible
22 Feb 1.0 18:34:28 10° NW 18:38:31 55° NNE 18:42:35 10° ESE visible
22 Feb 3.1 20:16:25 10° W 20:18:57 21° SW 20:18:57 21° SW visible
23 Feb 3.6 04:50:29 10° S 04:52:02 12° SSE 04:53:33 10° SE visible
23 Feb 3.2 20:06:36 10° WSW 20:09:16 17° SSW 20:09:53 16° SSW visible
24 Feb 3.4 04:39:02 10° S 04:41:37 16° SSE 04:44:13 10° ESE visible
24 Feb 3.6 19:57:10 10° SW 19:58:52 12° SSW 20:00:35 10° S visible
25 Feb 2.8 04:29:56 19° S 04:31:13 22° SSE 04:34:26 10° E visible
26 Feb 2.4 04:20:54 30° SSE 04:20:54 30° SSE 04:24:25 10° E visible
